#datetime,building,power
2022-02-04T00:00:00,mfh,40.43
2022-02-04T00:01:00,mfh,40.42
2022-02-04T00:02:00,mfh,41.21
2022-02-04T00:03:00,mfh,41.04
2022-02-04T00:04:00,mfh,41.35
2022-02-04T00:05:00,mfh,41.28
2022-02-04T00:06:00,mfh,41.34
2022-02-04T00:07:00,mfh,41.33
2022-02-04T00:08:00,mfh,40.54
2022-02-04T00:09:00,mfh,40.70
2022-02-04T00:10:00,mfh,40.69
2022-02-04T00:11:00,mfh,40.95
2022-02-04T00:12:00,mfh,42.37
2022-02-04T00:13:00,mfh,41.63
2022-02-04T00:14:00,mfh,41.60
2022-02-04T00:15:00,mfh,41.59
2022-02-04T00:16:00,mfh,41.01
2022-02-04T00:17:00,mfh,41.73
2022-02-04T00:18:00,mfh,41.63
2022-02-04T00:19:00,mfh,41.64
2022-02-04T00:20:00,mfh,42.38
2022-02-04T00:21:00,mfh,41.54
2022-02-04T00:22:00,mfh,41.50
2022-02-04T00:23:00,mfh,41.47
2022-02-04T00:24:00,mfh,41.38
2022-02-04T00:25:00,mfh,40.71
2022-02-04T00:26:00,mfh,40.74
2022-02-04T00:27:00,mfh,42.63
2022-02-04T00:28:00,mfh,42.70
2022-02-04T00:29:00,mfh,43.55
2022-02-04T00:30:00,mfh,43.73
2022-02-04T00:31:00,mfh,43.81
2022-02-04T00:32:00,mfh,43.54
2022-02-04T00:33:00,mfh,42.79
2022-02-04T00:34:00,mfh,42.70
2022-02-04T00:35:00,mfh,42.84
2022-02-04T00:36:00,mfh,43.09
2022-02-04T00:37:00,mfh,42.92
2022-02-04T00:38:00,mfh,42.85
2022-02-04T00:39:00,mfh,42.90
2022-02-04T00:40:00,mfh,42.80
2022-02-04T00:41:00,mfh,42.16
2022-02-04T00:42:00,mfh,42.02
2022-02-04T00:43:00,mfh,42.02
2022-02-04T00:44:00,mfh,42.00
2022-02-04T00:45:00,mfh,42.69
2022-02-04T00:46:00,mfh,42.88
2022-02-04T00:47:00,mfh,43.02
2022-02-04T00:48:00,mfh,43.07
2022-02-04T00:49:00,mfh,42.34
2022-02-04T00:50:00,mfh,40.52
2022-02-04T00:51:00,mfh,40.46
2022-02-04T00:52:00,mfh,40.58
2022-02-04T00:53:00,mfh,41.41
2022-02-04T00:54:00,mfh,41.08
2022-02-04T00:55:00,mfh,40.90
2022-02-04T00:56:00,mfh,41.63
2022-02-04T00:57:00,mfh,41.06
2022-02-04T00:58:00,mfh,40.32
2022-02-04T00:59:00,mfh,40.36
2022-02-04T01:00:00,mfh,40.22
2022-02-04T01:01:00,mfh,40.81
2022-02-04T01:02:00,mfh,40.88
2022-02-04T01:03:00,mfh,40.90
2022-02-04T01:04:00,mfh,40.90
2022-02-04T01:05:00,mfh,40.89
2022-02-04T01:06:00,mfh,40.47
2022-02-04T01:07:00,mfh,40.45
2022-02-04T01:08:00,mfh,40.44
2022-02-04T01:09:00,mfh,40.54
2022-02-04T01:10:00,mfh,41.15
2022-02-04T01:11:00,mfh,41.26
2022-02-04T01:12:00,mfh,41.22
2022-02-04T01:13:00,mfh,41.14
2022-02-04T01:14:00,mfh,40.27
2022-02-04T01:15:00,mfh,40.27
2022-02-04T01:16:00,mfh,40.28
2022-02-04T01:17:00,mfh,40.27
2022-02-04T01:18:00,mfh,40.88
2022-02-04T01:19:00,mfh,41.01
2022-02-04T01:20:00,mfh,41.26
2022-02-04T01:21:00,mfh,41.23
2022-02-04T01:22:00,mfh,41.48
2022-02-04T01:23:00,mfh,48.02
2022-02-04T01:24:00,mfh,49.03
2022-02-04T01:25:00,mfh,49.91
2022-02-04T01:26:00,mfh,50.31
2022-02-04T01:27:00,mfh,50.28
2022-02-04T01:28:00,mfh,49.93
2022-02-04T01:29:00,mfh,49.91
2022-02-04T01:30:00,mfh,49.83
2022-02-04T01:31:00,mfh,48.97
2022-02-04T01:32:00,mfh,48.78
2022-02-04T01:33:00,mfh,48.47
2022-02-04T01:34:00,mfh,48.40
2022-02-04T01:35:00,mfh,51.29
2022-02-04T01:36:00,mfh,50.97
2022-02-04T01:37:00,mfh,50.89
2022-02-04T01:38:00,mfh,51.05
2022-02-04T01:39:00,mfh,50.16
2022-02-04T01:40:00,mfh,42.95
2022-02-04T01:41:00,mfh,42.64
2022-02-04T01:42:00,mfh,42.65
2022-02-04T01:43:00,mfh,43.29
2022-02-04T01:44:00,mfh,43.55
2022-02-04T01:45:00,mfh,43.66
2022-02-04T01:46:00,mfh,43.50
2022-02-04T01:47:00,mfh,43.27
2022-02-04T01:48:00,mfh,42.64
2022-02-04T01:49:00,mfh,42.64
2022-02-04T01:50:00,mfh,42.67
2022-02-04T01:51:00,mfh,42.54
2022-02-04T01:52:00,mfh,42.90
2022-02-04T01:53:00,mfh,42.99
2022-02-04T01:54:00,mfh,43.07
2022-02-04T01:55:00,mfh,43.05
2022-02-04T01:56:00,mfh,42.36
2022-02-04T01:57:00,mfh,42.39
2022-02-04T01:58:00,mfh,42.38
2022-02-04T01:59:00,mfh,40.88
2022-02-04T02:00:00,mfh,41.12
2022-02-04T02:01:00,mfh,41.23
2022-02-04T02:02:00,mfh,41.55
2022-02-04T02:03:00,mfh,41.55
2022-02-04T02:04:00,mfh,40.83
2022-02-04T02:05:00,mfh,40.99
2022-02-04T02:06:00,mfh,40.99
2022-02-04T02:07:00,mfh,41.03
2022-02-04T02:08:00,mfh,41.67
2022-02-04T02:09:00,mfh,41.56
2022-02-04T02:10:00,mfh,41.47
2022-02-04T02:11:00,mfh,41.43
2022-02-04T02:12:00,mfh,40.74
2022-02-04T02:13:00,mfh,40.74
2022-02-04T02:14:00,mfh,40.80
2022-02-04T02:15:00,mfh,40.72
2022-02-04T02:16:00,mfh,41.32
2022-02-04T02:17:00,mfh,41.73
2022-02-04T02:18:00,mfh,41.25
2022-02-04T02:19:00,mfh,41.16
2022-02-04T02:20:00,mfh,40.77
2022-02-04T02:21:00,mfh,41.00
2022-02-04T02:22:00,mfh,40.93
2022-02-04T02:23:00,mfh,40.99
2022-02-04T02:24:00,mfh,41.49
2022-02-04T02:25:00,mfh,41.57
2022-02-04T02:26:00,mfh,41.59
2022-02-04T02:27:00,mfh,41.68
2022-02-04T02:28:00,mfh,41.17
2022-02-04T02:29:00,mfh,40.97
2022-02-04T02:30:00,mfh,40.98
2022-02-04T02:31:00,mfh,40.92
2022-02-04T02:32:00,mfh,42.55
2022-02-04T02:33:00,mfh,42.14
2022-02-04T02:34:00,mfh,42.19
2022-02-04T02:35:00,mfh,43.05
2022-02-04T02:36:00,mfh,41.43
2022-02-04T02:37:00,mfh,40.72
2022-02-04T02:38:00,mfh,40.65
2022-02-04T02:39:00,mfh,42.25
2022-02-04T02:40:00,mfh,42.49
2022-02-04T02:41:00,mfh,43.14
2022-02-04T02:42:00,mfh,43.13
2022-02-04T02:43:00,mfh,43.11
2022-02-04T02:44:00,mfh,43.09
2022-02-04T02:45:00,mfh,42.96
2022-02-04T02:46:00,mfh,42.78
2022-02-04T02:47:00,mfh,42.93
2022-02-04T02:48:00,mfh,42.60
2022-02-04T02:49:00,mfh,43.20
2022-02-04T02:50:00,mfh,43.17
2022-02-04T02:51:00,mfh,43.52
2022-02-04T02:52:00,mfh,43.51
2022-02-04T02:53:00,mfh,43.59
2022-02-04T02:54:00,mfh,42.98
2022-02-04T02:55:00,mfh,42.84
2022-02-04T02:56:00,mfh,42.83
2022-02-04T02:57:00,mfh,42.74
2022-02-04T02:58:00,mfh,43.47
2022-02-04T02:59:00,mfh,43.69
2022-02-04T03:00:00,mfh,43.82
2022-02-04T03:01:00,mfh,62.46
2022-02-04T03:02:00,mfh,63.25
2022-02-04T03:03:00,mfh,63.44
2022-02-04T03:04:00,mfh,63.58
2022-02-04T03:05:00,mfh,63.50
2022-02-04T03:06:00,mfh,64.16
2022-02-04T03:07:00,mfh,63.70
2022-02-04T03:08:00,mfh,63.11
2022-02-04T03:09:00,mfh,61.86
2022-02-04T03:10:00,mfh,61.51
2022-02-04T03:11:00,mfh,61.31
2022-02-04T03:12:00,mfh,61.44
2022-02-04T03:13:00,mfh,61.86
2022-02-04T03:14:00,mfh,62.40
2022-02-04T03:15:00,mfh,62.36
2022-02-04T03:16:00,mfh,62.35
2022-02-04T03:17:00,mfh,62.65
2022-02-04T03:18:00,mfh,62.02
2022-02-04T03:19:00,mfh,62.76
2022-02-04T03:20:00,mfh,61.70
2022-02-04T03:21:00,mfh,61.53
2022-02-04T03:22:00,mfh,62.28
2022-02-04T03:23:00,mfh,62.05
2022-02-04T03:24:00,mfh,62.20
2022-02-04T03:25:00,mfh,62.02
2022-02-04T03:26:00,mfh,61.99
2022-02-04T03:27:00,mfh,61.25
2022-02-04T03:28:00,mfh,61.32
2022-02-04T03:29:00,mfh,61.34
2022-02-04T03:30:00,mfh,61.27
2022-02-04T03:31:00,mfh,62.01
2022-02-04T03:32:00,mfh,62.13
2022-02-04T03:33:00,mfh,61.95
2022-02-04T03:34:00,mfh,62.04
2022-02-04T03:35:00,mfh,61.26
2022-02-04T03:36:00,mfh,61.48
2022-02-04T03:37:00,mfh,61.45
2022-02-04T03:38:00,mfh,61.74
2022-02-04T03:39:00,mfh,62.37
2022-02-04T03:40:00,mfh,62.48
2022-02-04T03:41:00,mfh,62.45
2022-02-04T03:42:00,mfh,62.49
2022-02-04T03:43:00,mfh,61.66
2022-02-04T03:44:00,mfh,61.52
2022-02-04T03:45:00,mfh,61.71
2022-02-04T03:46:00,mfh,61.71
2022-02-04T03:47:00,mfh,62.27
2022-02-04T03:48:00,mfh,62.76
2022-02-04T03:49:00,mfh,62.37
2022-02-04T03:50:00,mfh,62.14
2022-02-04T03:51:00,mfh,62.41
2022-02-04T03:52:00,mfh,61.48
2022-02-04T03:53:00,mfh,61.50
2022-02-04T03:54:00,mfh,61.44
2022-02-04T03:55:00,mfh,62.29
2022-02-04T03:56:00,mfh,64.13
2022-02-04T03:57:00,mfh,64.04
2022-02-04T03:58:00,mfh,64.06
2022-02-04T03:59:00,mfh,64.37
2022-02-04T04:00:00,mfh,63.36
2022-02-04T04:01:00,mfh,63.27
2022-02-04T04:02:00,mfh,62.86
2022-02-04T04:03:00,mfh,63.06
2022-02-04T04:04:00,mfh,63.59
2022-02-04T04:05:00,mfh,63.64
2022-02-04T04:06:00,mfh,63.62
2022-02-04T04:07:00,mfh,63.63
2022-02-04T04:08:00,mfh,63.22
2022-02-04T04:09:00,mfh,63.14
2022-02-04T04:10:00,mfh,63.39
2022-02-04T04:11:00,mfh,63.22
2022-02-04T04:12:00,mfh,63.80
2022-02-04T04:13:00,mfh,64.53
2022-02-04T04:14:00,mfh,64.05
2022-02-04T04:15:00,mfh,63.78
2022-02-04T04:16:00,mfh,64.28
2022-02-04T04:17:00,mfh,63.17
2022-02-04T04:18:00,mfh,63.59
2022-02-04T04:19:00,mfh,62.98
2022-02-04T04:20:00,mfh,62.97
2022-02-04T04:21:00,mfh,61.69
2022-02-04T04:22:00,mfh,61.40
2022-02-04T04:23:00,mfh,61.31
2022-02-04T04:24:00,mfh,63.06
2022-02-04T04:25:00,mfh,60.92
2022-02-04T04:26:00,mfh,60.92
2022-02-04T04:27:00,mfh,60.88
2022-02-04T04:28:00,mfh,60.90
2022-02-04T04:29:00,mfh,61.71
2022-02-04T04:30:00,mfh,61.55
2022-02-04T04:31:00,mfh,61.63
2022-02-04T04:32:00,mfh,65.88
2022-02-04T04:33:00,mfh,72.08
2022-02-04T04:34:00,mfh,71.79
2022-02-04T04:35:00,mfh,72.59
2022-02-04T04:36:00,mfh,73.06
2022-02-04T04:37:00,mfh,73.21
2022-02-04T04:38:00,mfh,72.68
2022-02-04T04:39:00,mfh,62.30
2022-02-04T04:40:00,mfh,62.45
2022-02-04T04:41:00,mfh,62.35
2022-02-04T04:42:00,mfh,61.78
2022-02-04T04:43:00,mfh,61.74
2022-02-04T04:44:00,mfh,61.48
2022-02-04T04:45:00,mfh,61.71
2022-02-04T04:46:00,mfh,62.35
2022-02-04T04:47:00,mfh,62.42
2022-02-04T04:48:00,mfh,62.43
2022-02-04T04:49:00,mfh,62.37
2022-02-04T04:50:00,mfh,62.54
2022-02-04T04:51:00,mfh,62.41
2022-02-04T04:52:00,mfh,62.56
2022-02-04T04:53:00,mfh,62.26
2022-02-04T04:54:00,mfh,62.45
2022-02-04T04:55:00,mfh,62.52
2022-02-04T04:56:00,mfh,62.44
2022-02-04T04:57:00,mfh,62.48
2022-02-04T04:58:00,mfh,62.79
2022-02-04T04:59:00,mfh,61.76
2022-02-04T05:00:00,mfh,62.25
2022-02-04T05:01:00,mfh,61.49
2022-02-04T05:02:00,mfh,62.36
2022-02-04T05:03:00,mfh,62.16
2022-02-04T05:04:00,mfh,62.29
2022-02-04T05:05:00,mfh,62.32
2022-02-04T05:06:00,mfh,63.99
2022-02-04T05:07:00,mfh,63.29
2022-02-04T05:08:00,mfh,63.51
2022-02-04T05:09:00,mfh,63.62
2022-02-04T05:10:00,mfh,64.36
2022-02-04T05:11:00,mfh,64.49
2022-02-04T05:12:00,mfh,64.36
2022-02-04T05:13:00,mfh,64.36
2022-02-04T05:14:00,mfh,64.34
2022-02-04T05:15:00,mfh,63.69
2022-02-04T05:16:00,mfh,63.72
2022-02-04T05:17:00,mfh,63.78
2022-02-04T05:18:00,mfh,63.81
2022-02-04T05:19:00,mfh,64.40
2022-02-04T05:20:00,mfh,64.50
2022-02-04T05:21:00,mfh,64.93
2022-02-04T05:22:00,mfh,64.93
2022-02-04T05:23:00,mfh,65.22
2022-02-04T05:24:00,mfh,64.50
2022-02-04T05:25:00,mfh,65.15
2022-02-04T05:26:00,mfh,65.09
2022-02-04T05:27:00,mfh,65.52
2022-02-04T05:28:00,mfh,65.85
2022-02-04T05:29:00,mfh,65.81
2022-02-04T05:30:00,mfh,64.27
2022-02-04T05:31:00,mfh,63.95
2022-02-04T05:32:00,mfh,63.42
2022-02-04T05:33:00,mfh,63.09
2022-02-04T05:34:00,mfh,63.14
2022-02-04T05:35:00,mfh,63.74
2022-02-04T05:36:00,mfh,63.60
2022-02-04T05:37:00,mfh,63.80
2022-02-04T05:38:00,mfh,64.74
2022-02-04T05:39:00,mfh,74.58
2022-02-04T05:40:00,mfh,74.52
2022-02-04T05:41:00,mfh,74.88
2022-02-04T05:42:00,mfh,74.93
2022-02-04T05:43:00,mfh,74.88
2022-02-04T05:44:00,mfh,75.21
2022-02-04T05:45:00,mfh,75.31
2022-02-04T05:46:00,mfh,75.28
2022-02-04T05:47:00,mfh,75.22
2022-02-04T05:48:00,mfh,75.44
2022-02-04T05:49:00,mfh,75.29
2022-02-04T05:50:00,mfh,74.81
2022-02-04T05:51:00,mfh,74.92
2022-02-04T05:52:00,mfh,75.38
2022-02-04T05:53:00,mfh,75.70
2022-02-04T05:54:00,mfh,75.54
2022-02-04T05:55:00,mfh,75.38
2022-02-04T05:56:00,mfh,75.37
2022-02-04T05:57:00,mfh,75.19
2022-02-04T05:58:00,mfh,74.85
2022-02-04T05:59:00,mfh,74.79
2022-02-04T06:00:00,mfh,74.86
2022-02-04T06:01:00,mfh,75.23
2022-02-04T06:02:00,mfh,75.39
2022-02-04T06:03:00,mfh,75.29
2022-02-04T06:04:00,mfh,75.33
2022-02-04T06:05:00,mfh,74.92
2022-02-04T06:06:00,mfh,74.81
2022-02-04T06:07:00,mfh,74.82
2022-02-04T06:08:00,mfh,74.77
2022-02-04T06:09:00,mfh,75.46
2022-02-04T06:10:00,mfh,75.42
2022-02-04T06:11:00,mfh,75.34
2022-02-04T06:12:00,mfh,75.13
2022-02-04T06:13:00,mfh,75.51
2022-02-04T06:14:00,mfh,74.92
2022-02-04T06:15:00,mfh,75.31
2022-02-04T06:16:00,mfh,75.27
2022-02-04T06:17:00,mfh,75.55
2022-02-04T06:18:00,mfh,75.51
2022-02-04T06:19:00,mfh,75.76
2022-02-04T06:20:00,mfh,75.39
2022-02-04T06:21:00,mfh,75.39
2022-02-04T06:22:00,mfh,75.23
2022-02-04T06:23:00,mfh,75.02
2022-02-04T06:24:00,mfh,75.02
2022-02-04T06:25:00,mfh,75.34
2022-02-04T06:26:00,mfh,75.38
2022-02-04T06:27:00,mfh,75.62
2022-02-04T06:28:00,mfh,75.44
2022-02-04T06:29:00,mfh,75.36
2022-02-04T06:30:00,mfh,76.11
2022-02-04T06:31:00,mfh,75.71
2022-02-04T06:32:00,mfh,76.00
2022-02-04T06:33:00,mfh,75.63
2022-02-04T06:34:00,mfh,75.62
2022-02-04T06:35:00,mfh,75.33
2022-02-04T06:36:00,mfh,75.55
2022-02-04T06:37:00,mfh,75.76
2022-02-04T06:38:00,mfh,75.36
2022-02-04T06:39:00,mfh,75.08
2022-02-04T06:40:00,mfh,74.36
2022-02-04T06:41:00,mfh,74.00
2022-02-04T06:42:00,mfh,74.23
2022-02-04T06:43:00,mfh,74.77
2022-02-04T06:44:00,mfh,74.72
2022-02-04T06:45:00,mfh,74.76
2022-02-04T06:46:00,mfh,74.78
2022-02-04T06:47:00,mfh,74.79
2022-02-04T06:48:00,mfh,74.37
2022-02-04T06:49:00,mfh,74.27
2022-02-04T06:50:00,mfh,74.14
2022-02-04T06:51:00,mfh,74.64
2022-02-04T06:52:00,mfh,74.71
2022-02-04T06:53:00,mfh,74.74
2022-02-04T06:54:00,mfh,74.77
2022-02-04T06:55:00,mfh,74.84
2022-02-04T06:56:00,mfh,74.29
2022-02-04T06:57:00,mfh,74.43
2022-02-04T06:58:00,mfh,74.45
2022-02-04T06:59:00,mfh,75.01
2022-02-04T07:00:00,mfh,75.30
2022-02-04T07:01:00,mfh,74.93
2022-02-04T07:02:00,mfh,74.95
2022-02-04T07:03:00,mfh,74.79
2022-02-04T07:04:00,mfh,74.24
2022-02-04T07:05:00,mfh,74.11
2022-02-04T07:06:00,mfh,74.23
2022-02-04T07:07:00,mfh,73.91
2022-02-04T07:08:00,mfh,74.47
2022-02-04T07:09:00,mfh,74.55
2022-02-04T07:10:00,mfh,74.46
2022-02-04T07:11:00,mfh,74.42
2022-02-04T07:12:00,mfh,73.87
2022-02-04T07:13:00,mfh,73.97
2022-02-04T07:14:00,mfh,74.00
2022-02-04T07:15:00,mfh,73.94
2022-02-04T07:16:00,mfh,74.46
2022-02-04T07:17:00,mfh,74.37
2022-02-04T07:18:00,mfh,74.48
2022-02-04T07:19:00,mfh,74.44
2022-02-04T07:20:00,mfh,75.15
2022-02-04T07:21:00,mfh,74.19
2022-02-04T07:22:00,mfh,74.02
2022-02-04T07:23:00,mfh,74.42
2022-02-04T07:24:00,mfh,74.34
2022-02-04T07:25:00,mfh,75.38
2022-02-04T07:26:00,mfh,75.38
2022-02-04T07:27:00,mfh,75.33
2022-02-04T07:28:00,mfh,75.14
2022-02-04T07:29:00,mfh,74.75
2022-02-04T07:30:00,mfh,74.61
2022-02-04T07:31:00,mfh,74.91
2022-02-04T07:32:00,mfh,74.71
2022-02-04T07:33:00,mfh,75.43
2022-02-04T07:34:00,mfh,75.15
2022-02-04T07:35:00,mfh,75.28
2022-02-04T07:36:00,mfh,75.14
2022-02-04T07:37:00,mfh,74.83
2022-02-04T07:38:00,mfh,74.74
2022-02-04T07:39:00,mfh,75.42
2022-02-04T07:40:00,mfh,74.64
2022-02-04T07:41:00,mfh,75.06
2022-02-04T07:42:00,mfh,75.18
2022-02-04T07:43:00,mfh,75.30
2022-02-04T07:44:00,mfh,75.27
2022-02-04T07:45:00,mfh,75.53
2022-02-04T07:46:00,mfh,74.97
2022-02-04T07:47:00,mfh,75.39
2022-02-04T07:48:00,mfh,75.01
2022-02-04T07:49:00,mfh,75.22
2022-02-04T07:50:00,mfh,75.27
2022-02-04T07:51:00,mfh,75.03
2022-02-04T07:52:00,mfh,74.74
2022-02-04T07:53:00,mfh,75.01
2022-02-04T07:54:00,mfh,74.92
2022-02-04T07:55:00,mfh,74.32
2022-02-04T07:56:00,mfh,74.47
2022-02-04T07:57:00,mfh,74.43
2022-02-04T07:58:00,mfh,75.04
2022-02-04T07:59:00,mfh,75.09
2022-02-04T08:00:00,mfh,75.11
2022-02-04T08:01:00,mfh,74.74
2022-02-04T08:02:00,mfh,74.56
2022-02-04T08:03:00,mfh,73.92
2022-02-04T08:04:00,mfh,74.15
2022-02-04T08:05:00,mfh,74.06
2022-02-04T08:06:00,mfh,74.40
2022-02-04T08:07:00,mfh,75.18
2022-02-04T08:08:00,mfh,75.08
2022-02-04T08:09:00,mfh,75.45
2022-02-04T08:10:00,mfh,75.36
2022-02-04T08:11:00,mfh,74.91
2022-02-04T08:12:00,mfh,74.63
2022-02-04T08:13:00,mfh,74.96
2022-02-04T08:14:00,mfh,74.38
2022-02-04T08:15:00,mfh,74.60
2022-02-04T08:16:00,mfh,75.23
2022-02-04T08:17:00,mfh,75.20
2022-02-04T08:18:00,mfh,75.17
2022-02-04T08:19:00,mfh,76.05
2022-02-04T08:20:00,mfh,75.71
2022-02-04T08:21:00,mfh,76.05
2022-02-04T08:22:00,mfh,76.20
2022-02-04T08:23:00,mfh,76.63
2022-02-04T08:24:00,mfh,76.13
2022-02-04T08:25:00,mfh,77.21
2022-02-04T08:26:00,mfh,76.86
2022-02-04T08:27:00,mfh,77.22
2022-02-04T08:28:00,mfh,76.62
2022-02-04T08:29:00,mfh,76.38
2022-02-04T08:30:00,mfh,76.47
2022-02-04T08:31:00,mfh,76.95
2022-02-04T08:32:00,mfh,77.73
2022-02-04T08:33:00,mfh,78.22
2022-02-04T08:34:00,mfh,78.39
2022-02-04T08:35:00,mfh,78.50
2022-02-04T08:36:00,mfh,77.83
2022-02-04T08:37:00,mfh,76.77
2022-02-04T08:38:00,mfh,76.63
2022-02-04T08:39:00,mfh,76.58
2022-02-04T08:40:00,mfh,76.58
2022-02-04T08:41:00,mfh,77.23
2022-02-04T08:42:00,mfh,77.20
2022-02-04T08:43:00,mfh,77.10
2022-02-04T08:44:00,mfh,76.52
2022-02-04T08:45:00,mfh,77.75
2022-02-04T08:46:00,mfh,76.67
2022-02-04T08:47:00,mfh,76.79
2022-02-04T08:48:00,mfh,77.91
2022-02-04T08:49:00,mfh,77.11
2022-02-04T08:50:00,mfh,78.22
2022-02-04T08:51:00,mfh,78.63
2022-02-04T08:52:00,mfh,78.18
2022-02-04T08:53:00,mfh,78.24
2022-02-04T08:54:00,mfh,78.06
2022-02-04T08:55:00,mfh,78.11
2022-02-04T08:56:00,mfh,78.16
2022-02-04T08:57:00,mfh,77.79
2022-02-04T08:58:00,mfh,77.72
2022-02-04T08:59:00,mfh,77.56
2022-02-04T09:00:00,mfh,77.29
2022-02-04T09:01:00,mfh,76.11
2022-02-04T09:02:00,mfh,76.01
2022-02-04T09:03:00,mfh,76.03
2022-02-04T09:04:00,mfh,76.50
2022-02-04T09:05:00,mfh,76.29
2022-02-04T09:06:00,mfh,76.88
2022-02-04T09:07:00,mfh,76.55
2022-02-04T09:08:00,mfh,76.75
2022-02-04T09:09:00,mfh,76.03
2022-02-04T09:10:00,mfh,76.72
2022-02-04T09:11:00,mfh,76.77
2022-02-04T09:12:00,mfh,76.82
2022-02-04T09:13:00,mfh,77.92
2022-02-04T09:14:00,mfh,78.48
2022-02-04T09:15:00,mfh,78.48
2022-02-04T09:16:00,mfh,78.53
2022-02-04T09:17:00,mfh,78.16
2022-02-04T09:18:00,mfh,78.01
2022-02-04T09:19:00,mfh,77.65
2022-02-04T09:20:00,mfh,76.36
2022-02-04T09:21:00,mfh,77.26
2022-02-04T09:22:00,mfh,77.19
2022-02-04T09:23:00,mfh,76.91
2022-02-04T09:24:00,mfh,76.87
2022-02-04T09:25:00,mfh,77.55
2022-02-04T09:26:00,mfh,76.53
2022-02-04T09:27:00,mfh,76.87
2022-02-04T09:28:00,mfh,76.55
2022-02-04T09:29:00,mfh,76.60
2022-02-04T09:30:00,mfh,76.93
2022-02-04T09:31:00,mfh,76.99
2022-02-04T09:32:00,mfh,76.84
2022-02-04T09:33:00,mfh,77.29
2022-02-04T09:34:00,mfh,75.83
2022-02-04T09:35:00,mfh,75.73
2022-02-04T09:36:00,mfh,75.82
2022-02-04T09:37:00,mfh,75.73
2022-02-04T09:38:00,mfh,76.27
2022-02-04T09:39:00,mfh,76.30
2022-02-04T09:40:00,mfh,76.32
2022-02-04T09:41:00,mfh,76.26
2022-02-04T09:42:00,mfh,76.70
2022-02-04T09:43:00,mfh,76.22
2022-02-04T09:44:00,mfh,76.39
2022-02-04T09:45:00,mfh,76.34
2022-02-04T09:46:00,mfh,76.65
2022-02-04T09:47:00,mfh,76.66
2022-02-04T09:48:00,mfh,76.77
2022-02-04T09:49:00,mfh,76.60
2022-02-04T09:50:00,mfh,76.48
2022-02-04T09:51:00,mfh,76.16
2022-02-04T09:52:00,mfh,76.03
2022-02-04T09:53:00,mfh,82.58
2022-02-04T09:54:00,mfh,82.99
2022-02-04T09:55:00,mfh,83.45
2022-02-04T09:56:00,mfh,83.17
2022-02-04T09:57:00,mfh,82.95
2022-02-04T09:58:00,mfh,82.96
2022-02-04T09:59:00,mfh,82.31
2022-02-04T10:00:00,mfh,82.33
2022-02-04T10:01:00,mfh,82.69
2022-02-04T10:02:00,mfh,82.05
2022-02-04T10:03:00,mfh,82.39
2022-02-04T10:04:00,mfh,82.60
2022-02-04T10:05:00,mfh,82.45
2022-02-04T10:06:00,mfh,82.36
2022-02-04T10:07:00,mfh,81.95
2022-02-04T10:08:00,mfh,89.17
2022-02-04T10:09:00,mfh,89.61
2022-02-04T10:10:00,mfh,89.58
2022-02-04T10:11:00,mfh,89.56
2022-02-04T10:12:00,mfh,89.59
2022-02-04T10:13:00,mfh,89.41
2022-02-04T10:14:00,mfh,89.60
2022-02-04T10:15:00,mfh,89.46
2022-02-04T10:16:00,mfh,88.99
2022-02-04T10:17:00,mfh,89.05
2022-02-04T10:18:00,mfh,88.85
2022-02-04T10:19:00,mfh,88.79
2022-02-04T10:20:00,mfh,88.99
2022-02-04T10:21:00,mfh,88.75
2022-02-04T10:22:00,mfh,88.91
2022-02-04T10:23:00,mfh,88.66
2022-02-04T10:24:00,mfh,88.88
2022-02-04T10:25:00,mfh,88.71
2022-02-04T10:26:00,mfh,88.53
2022-02-04T10:27:00,mfh,88.58
2022-02-04T10:28:00,mfh,88.65
2022-02-04T10:29:00,mfh,88.72
2022-02-04T10:30:00,mfh,86.41
2022-02-04T10:31:00,mfh,79.94
2022-02-04T10:32:00,mfh,80.50
2022-02-04T10:33:00,mfh,74.93
2022-02-04T10:34:00,mfh,74.36
2022-02-04T10:35:00,mfh,75.09
2022-02-04T10:36:00,mfh,75.92
2022-02-04T10:37:00,mfh,75.77
2022-02-04T10:38:00,mfh,75.83
2022-02-04T10:39:00,mfh,76.20
2022-02-04T10:40:00,mfh,76.35
2022-02-04T10:41:00,mfh,75.63
2022-02-04T10:42:00,mfh,76.02
2022-02-04T10:43:00,mfh,76.06
2022-02-04T10:44:00,mfh,83.17
2022-02-04T10:45:00,mfh,83.40
2022-02-04T10:46:00,mfh,83.26
2022-02-04T10:47:00,mfh,82.75
2022-02-04T10:48:00,mfh,82.82
2022-02-04T10:49:00,mfh,81.78
2022-02-04T10:50:00,mfh,81.70
2022-02-04T10:51:00,mfh,81.42
2022-02-04T10:52:00,mfh,81.31
2022-02-04T10:53:00,mfh,81.61
2022-02-04T10:54:00,mfh,81.53
2022-02-04T10:55:00,mfh,82.04
2022-02-04T10:56:00,mfh,81.98
2022-02-04T10:57:00,mfh,81.86
2022-02-04T10:58:00,mfh,81.41
2022-02-04T10:59:00,mfh,84.31
2022-02-04T11:00:00,mfh,84.06
2022-02-04T11:01:00,mfh,84.46
2022-02-04T11:02:00,mfh,84.49
2022-02-04T11:03:00,mfh,84.36
2022-02-04T11:04:00,mfh,84.30
2022-02-04T11:05:00,mfh,84.22
2022-02-04T11:06:00,mfh,83.74
2022-02-04T11:07:00,mfh,83.65
2022-02-04T11:08:00,mfh,83.54
2022-02-04T11:09:00,mfh,83.57
2022-02-04T11:10:00,mfh,83.89
2022-02-04T11:11:00,mfh,80.97
2022-02-04T11:12:00,mfh,81.07
2022-02-04T11:13:00,mfh,80.97
2022-02-04T11:14:00,mfh,80.53
2022-02-04T11:15:00,mfh,80.66
2022-02-04T11:16:00,mfh,80.71
2022-02-04T11:17:00,mfh,81.32
2022-02-04T11:18:00,mfh,81.77
2022-02-04T11:19:00,mfh,82.21
2022-02-04T11:20:00,mfh,82.23
2022-02-04T11:21:00,mfh,82.22
2022-02-04T11:22:00,mfh,82.28
2022-02-04T11:23:00,mfh,82.06
2022-02-04T11:24:00,mfh,82.02
2022-02-04T11:25:00,mfh,80.86
2022-02-04T11:26:00,mfh,80.79
2022-02-04T11:27:00,mfh,80.97
2022-02-04T11:28:00,mfh,81.17
2022-02-04T11:29:00,mfh,80.97
2022-02-04T11:30:00,mfh,81.90
2022-02-04T11:31:00,mfh,75.18
2022-02-04T11:32:00,mfh,75.19
2022-02-04T11:33:00,mfh,75.35
2022-02-04T11:34:00,mfh,77.09
2022-02-04T11:35:00,mfh,77.49
2022-02-04T11:36:00,mfh,75.91
2022-02-04T11:37:00,mfh,76.01
2022-02-04T11:38:00,mfh,75.87
2022-02-04T11:39:00,mfh,75.43
2022-02-04T11:40:00,mfh,75.64
2022-02-04T11:41:00,mfh,75.62
2022-02-04T11:42:00,mfh,75.93
2022-02-04T11:43:00,mfh,77.09
2022-02-04T11:44:00,mfh,80.47
2022-02-04T11:45:00,mfh,85.24
2022-02-04T11:46:00,mfh,85.63
2022-02-04T11:47:00,mfh,85.55
2022-02-04T11:48:00,mfh,85.18
2022-02-04T11:49:00,mfh,85.02
2022-02-04T11:50:00,mfh,85.04
2022-02-04T11:51:00,mfh,85.18
2022-02-04T11:52:00,mfh,85.35
2022-02-04T11:53:00,mfh,85.25
2022-02-04T11:54:00,mfh,88.25
2022-02-04T11:55:00,mfh,88.40
2022-02-04T11:56:00,mfh,88.15
2022-02-04T11:57:00,mfh,88.11
2022-02-04T11:58:00,mfh,87.96
2022-02-04T11:59:00,mfh,88.17
2022-02-04T12:00:00,mfh,83.10
2022-02-04T12:01:00,mfh,83.10
2022-02-04T12:02:00,mfh,82.98
2022-02-04T12:03:00,mfh,83.50
2022-02-04T12:04:00,mfh,83.51
2022-02-04T12:05:00,mfh,83.79
2022-02-04T12:06:00,mfh,83.73
2022-02-04T12:07:00,mfh,82.95
2022-02-04T12:08:00,mfh,82.94
2022-02-04T12:09:00,mfh,83.14
2022-02-04T12:10:00,mfh,83.02
2022-02-04T12:11:00,mfh,83.05
2022-02-04T12:12:00,mfh,77.02
2022-02-04T12:13:00,mfh,76.15
2022-02-04T12:14:00,mfh,76.32
2022-02-04T12:15:00,mfh,75.52
2022-02-04T12:16:00,mfh,75.58
2022-02-04T12:17:00,mfh,76.15
2022-02-04T12:18:00,mfh,75.21
2022-02-04T12:19:00,mfh,75.28
2022-02-04T12:20:00,mfh,75.35
2022-02-04T12:21:00,mfh,75.37
2022-02-04T12:22:00,mfh,74.91
2022-02-04T12:23:00,mfh,75.01
2022-02-04T12:24:00,mfh,75.01
2022-02-04T12:25:00,mfh,75.56
2022-02-04T12:26:00,mfh,75.30
2022-02-04T12:27:00,mfh,75.40
2022-02-04T12:28:00,mfh,75.27
2022-02-04T12:29:00,mfh,74.86
2022-02-04T12:30:00,mfh,74.43
2022-02-04T12:31:00,mfh,76.17
2022-02-04T12:32:00,mfh,74.45
2022-02-04T12:33:00,mfh,74.50
2022-02-04T12:34:00,mfh,86.92
2022-02-04T12:35:00,mfh,87.54
2022-02-04T12:36:00,mfh,88.01
2022-02-04T12:37:00,mfh,87.59
2022-02-04T12:38:00,mfh,87.14
2022-02-04T12:39:00,mfh,87.09
2022-02-04T12:40:00,mfh,87.34
2022-02-04T12:41:00,mfh,86.68
2022-02-04T12:42:00,mfh,86.69
2022-02-04T12:43:00,mfh,86.61
2022-02-04T12:44:00,mfh,86.60
2022-02-04T12:45:00,mfh,86.54
2022-02-04T12:46:00,mfh,89.18
2022-02-04T12:47:00,mfh,89.05
2022-02-04T12:48:00,mfh,89.05
2022-02-04T12:49:00,mfh,86.52
2022-02-04T12:50:00,mfh,86.69
2022-02-04T12:51:00,mfh,84.00
2022-02-04T12:52:00,mfh,83.92
2022-02-04T12:53:00,mfh,83.97
2022-02-04T12:54:00,mfh,84.65
2022-02-04T12:55:00,mfh,84.42
2022-02-04T12:56:00,mfh,84.16
2022-02-04T12:57:00,mfh,84.02
2022-02-04T12:58:00,mfh,83.98
2022-02-04T12:59:00,mfh,84.20
2022-02-04T13:00:00,mfh,84.34
2022-02-04T13:01:00,mfh,84.30
2022-02-04T13:02:00,mfh,84.00
2022-02-04T13:03:00,mfh,83.64
2022-02-04T13:04:00,mfh,83.35
2022-02-04T13:05:00,mfh,81.23
2022-02-04T13:06:00,mfh,75.16
2022-02-04T13:07:00,mfh,76.32
2022-02-04T13:08:00,mfh,76.29
2022-02-04T13:09:00,mfh,76.56
2022-02-04T13:10:00,mfh,75.90
2022-02-04T13:11:00,mfh,75.95
2022-02-04T13:12:00,mfh,75.73
2022-02-04T13:13:00,mfh,75.91
2022-02-04T13:14:00,mfh,76.35
2022-02-04T13:15:00,mfh,75.95
2022-02-04T13:16:00,mfh,76.88
2022-02-04T13:17:00,mfh,76.78
2022-02-04T13:18:00,mfh,76.23